Location: Home
(42.5358°N, 72.7383°W)
Time: 13:24:41
(UTC-05:00)

Transit 2A Rocket - Pass Details

Date: 29 November 2021
Orbit: 584 x 918 km, 66.7° (Epoch: 22 January)

Event Time Altitude Azimuth Distance (km) Brightness Sun altitude
Rises 18:35:22 0° 318° (NW) 3,550 8.9 -24.5°
Reaches altitude 10° 18:38:23 10° 305° (NW) 2,582 8.3 -25.0°
Maximum altitude 18:43:03 24° 254° (WSW) 1,733 7.5 -25.9°
Drops below altitude 10° 18:47:30 10° 203° (SSW) 2,444 7.9 -26.7°
Sets 18:50:17 0° 189° (S) 3,318 8.5 -27.2°
